sat.trackr.live / text

‹ back to catalog

STARLINK-31933

NORAD 59874 · 2024-098S

PAYLOAD ACTIVE UNKNOWN

§ Identity

Operator
Country
US
Launch date
2024-05-24
Launch site
AFETR
Launch vehicle
Mass (kg)
RCS (m²)

Purposes: comms

External: N2YO · Heavens-Above · Gunter

§ Orbital elements

Epoch: 2026-09-21T16:43:47.117568Z

Period
94.27 min
Inclination
43.0032°
Eccentricity
0.0001365
Mean motion
15.27580022 rev/d
Perigee alt
482.1 km
Apogee alt
484.0 km
Semi-major
6,861.2 km
B*
2.5102e-5
RAAN
250.9931°
Arg perigee
272.1101°
Mean anomaly
87.9595°
Rev number
13,182

§ Raw data

STARLINK-319331 59874U 24098S   26264.69707312  .00000429  00000+0  25102-4 0  99992 59874  43.0032 250.9931 0001365 272.1101  87.9595 15.27580022131825

JSON: /api/v1/satellites/59874 · /tle

For live sub-satellite position, see the globe view (requires WebGL).

§ Visibility from observer

Set your observer location to see the next 7 days of passes ≥ 10°. The values pass through the URL so the page stays shareable.

No JS? Fill the form by hand. The geolocation button needs JavaScript.